,,Stat5,,Stat1,,Stat2,,Stat3,,Stat4,,Wind1,,Wind1,
time,status,PA1M_AVG,status,PR1M_SUM,status,RH1M_AVG,status,SR1M_AVG,status,TA1M_AVG,status,W1dAve1m,status,W1sAve1m,
2002-11-28, 00:00:00,VALID,920.902,VALID,0,VALID,99.5018,VALID,0.0339617,VALID,19.4274,VALID,251,VALID,0.572574,
2002-11-28, 00:01:00,VALID,920.884,VALID,0,VALID,99.5005,VALID,0.0339617,VALID,19.4139,VALID,251,VALID,0.554476,
2002-11-28, 00:02:00,VALID,920.856,VALID,0,VALID,99.4954,VALID,0.0509425,VALID,19.3943,VALID,251,VALID,0.536994,
2002-11-28, 00:03:00,VALID,920.851,VALID,0,VALID,99.5005,VALID,0.0679233,VALID,19.3717,VALID,115,VALID,0.484375,
2002-11-28, 00:04:00,VALID,920.834,VALID,0,VALID,99.5107,VALID,0.0679233,VALID,19.369,VALID,82,VALID,0.424805,
2002-11-28, 00:05:00,VALID,920.838,VALID,0,VALID,99.5196,VALID,0.0679233,VALID,19.365,VALID,86,VALID,0.296453,
2002-11-28, 00:06:00,VALID,920.848,VALID,0,VALID,99.5234,VALID,-0.0169808,VALID,19.3794,VALID,89,VALID,0.0178865,
2002-11-28, 00:07:00,VALID,920.846,VALID,0,VALID,99.5348,VALID,-0.0339617,VALID,19.4092,VALID,89,VALID,0.179688,
2002-11-28, 00:08:00,VALID,920.843,VALID,0.2,VALID,99.5412,VALID,-0.0169808,VALID,19.4119,VALID,89,VALID,0.0316311,
2002-11-28, 00:09:00,VALID,920.862,VALID,0,VALID,99.5425,VALID,-0.0339617,VALID,19.4383,VALID,89,VALID,0,
2002-11-28, 00:10:00,VALID,920.86,VALID,0,VALID,99.5616,VALID,-0.0509425,VALID,19.4606,VALID,89,VALID,0,
2002-11-28, 00:11:00,VALID,920.861,VALID,0,VALID,99.5654,VALID,0,VALID,19.4664,VALID,89,VALID,0,
2002-11-28, 00:12:00,VALID,920.874,VALID,0,VALID,99.5717,VALID,0,VALID,19.4927,VALID,89,VALID,0,
2002-11-28, 00:13:00,VALID,920.871,VALID,0,VALID,99.5704,VALID,-0.0169808,VALID,19.5347,VALID,89,VALID,0,
2002-11-28, 00:14:00,VALID,920.861,VALID,0,VALID,99.5755,VALID,-0.0169808,VALID,19.5638,VALID,89,VALID,0,
2002-11-28, 00:15:00,VALID,920.871,VALID,0.2,VALID,99.5654,VALID,-0.0339617,VALID,19.5702,VALID,89,VALID,0,
2002-11-28, 00:16:00,VALID,920.872,VALID,0,VALID,99.5717,VALID,0,VALID,19.5702,VALID,88,VALID,0.0153952,
2002-11-28, 00:17:00,VALID,920.878,VALID,0,VALID,99.573,VALID,-0.0169808,VALID,19.5536,VALID,47,VALID,0.0293497,
2002-11-28, 00:18:00,VALID,920.893,VALID,0,VALID,99.5704,VALID,0,VALID,19.5509,VALID,45,VALID,0,
2002-11-28, 00:19:00,VALID,920.883,VALID,0,VALID,99.5692,VALID,-0.0339617,VALID,19.5506,VALID,45,VALID,0,
2002-11-28, 00:20:00,VALID,920.896,VALID,0,VALID,99.559,VALID,-0.0169808,VALID,19.5446,VALID,45,VALID,0,
2002-11-28, 00:21:00,VALID,920.893,VALID,0,VALID,99.5577,VALID,-0.0679233,VALID,19.5382,VALID,45,VALID,0,
2002-11-28, 00:22:00,VALID,920.879,VALID,0,VALID,99.5743,VALID,-0.0679233,VALID,19.5677,VALID,45,VALID,0,
2002-11-28, 00:23:00,VALID,920.876,VALID,0.2,VALID,99.5743,VALID,-0.0679233,VALID,19.5841,VALID,45,VALID,0.0215993,
2002-11-28, 00:24:00,VALID,920.861,VALID,0,VALID,99.5692,VALID,-0.0679233,VALID,19.5966,VALID,45,VALID,0,
2002-11-28, 00:25:00,VALID,920.854,VALID,0,VALID,99.5654,VALID,-0.0849042,VALID,19.5996,VALID,45,VALID,0,
2002-11-28, 00:26:00,VALID,920.85,VALID,0,VALID,99.5743,VALID,-0.0509425,VALID,19.606,VALID,45,VALID,0,
2002-11-28, 00:27:00,VALID,920.853,VALID,0,VALID,99.5717,VALID,-0.0509425,VALID,19.6095,VALID,45,VALID,0,
2002-11-28, 00:28:00,VALID,920.847,VALID,0,VALID,99.5717,VALID,-0.101885,VALID,19.5869,VALID,45,VALID,0,
2002-11-28, 00:29:00,VALID,920.846,VALID,0,VALID,99.5704,VALID,-0.0849042,VALID,19.5837,VALID,45,VALID,0,
2002-11-28, 00:30:00,VALID,920.843,VALID,0,VALID,99.5768,VALID,-0.0849042,VALID,19.5874,VALID,45,VALID,0.0137868,
2002-11-28, 00:31:00,VALID,920.833,VALID,0,VALID,99.5717,VALID,-0.0849042,VALID,19.5966,VALID,45,VALID,0.0975507,
2002-11-28, 00:32:00,VALID,920.824,VALID,0,VALID,99.5768,VALID,-0.0509425,VALID,19.5832,VALID,45,VALID,0.204346,
2002-11-28, 00:33:00,VALID,920.823,VALID,0,VALID,99.5755,VALID,-0.0339617,VALID,19.5802,VALID,45,VALID,0.196157,
2002-11-28, 00:34:00,VALID,920.818,VALID,0,VALID,99.5806,VALID,-0.0509425,VALID,19.5834,VALID,45,VALID,0.296669,
2002-11-28, 00:35:00,VALID,920.815,VALID,0,VALID,99.5717,VALID,-0.0169808,VALID,19.5834,VALID,45,VALID,0.3419,
2002-11-28, 00:36:00,VALID,920.804,VALID,0.2,VALID,99.573,VALID,0.0509425,VALID,19.5857,VALID,45,VALID,0.364329,
2002-11-28, 00:37:00,VALID,920.797,VALID,0,VALID,99.5616,VALID,0.0509425,VALID,19.5725,VALID,45,VALID,0.257813,
2002-11-28, 00:38:00,VALID,920.772,VALID,0,VALID,99.5704,VALID,0.0679233,VALID,19.5558,VALID,45,VALID,0.0768581,
2002-11-28, 00:39:00,VALID,920.766,VALID,0,VALID,99.5616,VALID,0.0339617,VALID,19.5561,VALID,45,VALID,0,
2002-11-28, 00:40:00,VALID,920.751,VALID,0,VALID,99.5704,VALID,0.0339617,VALID,19.5591,VALID,45,VALID,0.0183699,
2002-11-28, 00:41:00,VALID,920.742,VALID,0,VALID,99.5603,VALID,0.0339617,VALID,19.5688,VALID,45,VALID,0.0365954,
2002-11-28, 00:42:00,VALID,920.739,VALID,0,VALID,99.5628,VALID,0.0509425,VALID,19.5886,VALID,45,VALID,0.132401,
2002-11-28, 00:43:00,VALID,920.724,VALID,0,VALID,99.5666,VALID,0.0679233,VALID,19.5526,VALID,45,VALID,0.11471,
2002-11-28, 00:44:00,VALID,920.721,VALID,0,VALID,99.5641,VALID,0.0339617,VALID,19.524,VALID,45,VALID,0,
2002-11-28, 00:45:00,VALID,920.716,VALID,0,VALID,99.5666,VALID,0,VALID,19.5208,VALID,45,VALID,0,
2002-11-28, 00:46:00,VALID,920.72,VALID,0,VALID,99.5641,VALID,0.0509425,VALID,19.5235,VALID,45,VALID,0,
2002-11-28, 00:47:00,VALID,920.708,VALID,0,VALID,99.5616,VALID,0.0509425,VALID,19.5399,VALID,45,VALID,0,
2002-11-28, 00:48:00,VALID,920.707,VALID,0,VALID,99.5641,VALID,0.0169808,VALID,19.5208,VALID,45,VALID,0,
2002-11-28, 00:49:00,VALID,920.689,VALID,0,VALID,99.5679,VALID,0.0169808,VALID,19.5111,VALID,45,VALID,0,
2002-11-28, 00:50:00,VALID,920.696,VALID,0.2,VALID,99.573,VALID,0.0169808,VALID,19.5245,VALID,45,VALID,0,
2002-11-28, 00:51:00,VALID,920.678,VALID,0,VALID,99.5743,VALID,-0.0339617,VALID,19.5287,VALID,45,VALID,0,
2002-11-28, 00:52:00,VALID,920.661,VALID,0,VALID,99.5857,VALID,-0.0509425,VALID,19.532,VALID,45,VALID,0.0424409,
2002-11-28, 00:53:00,VALID,920.643,VALID,0,VALID,99.5857,VALID,-0.0339617,VALID,19.5506,VALID,44,VALID,0.440578,
2002-11-28, 00:54:00,VALID,920.618,VALID,0,VALID,99.5806,VALID,-0.0679233,VALID,19.5675,VALID,45,VALID,0.359797,
2002-11-28, 00:55:00,VALID,920.611,VALID,0,VALID,99.5794,VALID,-0.0509425,VALID,19.5643,VALID,45,VALID,0.249383,
2002-11-28, 00:56:00,VALID,920.584,VALID,0,VALID,99.5704,VALID,-0.0339617,VALID,19.5384,VALID,45,VALID,0.0522204,
2002-11-28, 00:57:00,VALID,920.582,VALID,0,VALID,99.5679,VALID,-0.0339617,VALID,19.5123,VALID,44,VALID,0,
2002-11-28, 00:58:00,VALID,920.573,VALID,0,VALID,99.5755,VALID,-0.0169808,VALID,19.486,VALID,44,VALID,0,
2002-11-28, 00:59:00,VALID,920.576,VALID,0.2,VALID,99.573,VALID,-0.0339617,VALID,19.483,VALID,45,VALID,0,
2002-11-28, 01:00:00,VALID,920.57,VALID,0,VALID,99.5832,VALID,-0.0509425,VALID,19.4932,VALID,45,VALID,0,
2002-11-28, 01:01:00,VALID,920.567,VALID,0,VALID,99.5781,VALID,-0.0849042,VALID,19.5093,VALID,45,VALID,0.00422297,
2002-11-28, 01:02:00,VALID,920.559,VALID,0,VALID,99.5781,VALID,-0.0679233,VALID,19.522,VALID,45,VALID,0.0538651,
2002-11-28, 01:03:00,VALID,920.542,VALID,0,VALID,99.5908,VALID,-0.0339617,VALID,19.5382,VALID,45,VALID,0.0485197,
2002-11-28, 01:04:00,VALID,920.525,VALID,0,VALID,99.5781,VALID,-0.0509425,VALID,19.5412,VALID,45,VALID,0.143483,
2002-11-28, 01:05:00,VALID,920.513,VALID,0,VALID,99.5781,VALID,-0.0679233,VALID,19.5352,VALID,45,VALID,0.292279,
2002-11-28, 01:06:00,VALID,920.497,VALID,0,VALID,99.5819,VALID,-0.0339617,VALID,19.5089,VALID,45,VALID,0.207559,
2002-11-28, 01:07:00,VALID,920.467,VALID,0,VALID,99.5844,VALID,-0.0849042,VALID,19.522,VALID,45,VALID,0.00568182,
2002-11-28, 01:08:00,VALID,920.444,VALID,0,VALID,99.5857,VALID,-0.0679233,VALID,19.5089,VALID,45,VALID,0.0760135,
2002-11-28, 01:09:00,VALID,920.422,VALID,0,VALID,99.5959,VALID,0,VALID,19.5188,VALID,45,VALID,0.153783,
2002-11-28, 01:10:00,VALID,920.401,VALID,0,VALID,99.5832,VALID,-0.0339617,VALID,19.5161,VALID,73,VALID,0.307155,
2002-11-28, 01:11:00,VALID,920.401,VALID,0,VALID,99.5933,VALID,-0.0679233,VALID,19.5089,VALID,92,VALID,0.137386,
2002-11-28, 01:12:00,VALID,920.392,VALID,0,VALID,99.5972,VALID,-0.0509425,VALID,19.5183,VALID,92,VALID,0.00735294,
2002-11-28, 01:13:00,VALID,920.376,VALID,0,VALID,99.5972,VALID,-0.0509425,VALID,19.5282,VALID,92,VALID,0.157939,
2002-11-28, 01:14:00,VALID,920.371,VALID,0,VALID,99.6022,VALID,-0.0339617,VALID,19.5419,VALID,92,VALID,0.128174,
2002-11-28, 01:15:00,VALID,920.361,VALID,0,VALID,99.5959,VALID,-0.0339617,VALID,19.5384,VALID,92,VALID,0,
2002-11-28, 01:16:00,VALID,920.347,VALID,0,VALID,99.5984,VALID,-0.0509425,VALID,19.5451,VALID,92,VALID,0,
2002-11-28, 01:17:00,VALID,920.34,VALID,0,VALID,99.5997,VALID,-0.0679233,VALID,19.5481,VALID,92,VALID,0,
2002-11-28, 01:18:00,VALID,920.333,VALID,0.2,VALID,99.6022,VALID,-0.0679233,VALID,19.5479,VALID,92,VALID,0.0142912,
2002-11-28, 01:19:00,VALID,920.323,VALID,0,VALID,99.6048,VALID,-0.0509425,VALID,19.5446,VALID,92,VALID,0.188189,
2002-11-28, 01:20:00,VALID,920.309,VALID,0,VALID,99.5984,VALID,-0.0339617,VALID,19.5414,VALID,92,VALID,0.229096,
2002-11-28, 01:21:00,VALID,920.293,VALID,0,VALID,99.5895,VALID,-0.0679233,VALID,19.5352,VALID,92,VALID,0.221591,
2002-11-28, 01:22:00,VALID,920.288,VALID,0,VALID,99.5908,VALID,-0.0339617,VALID,19.5285,VALID,92,VALID,0.0337838,
2002-11-28, 01:23:00,VALID,920.275,VALID,0,VALID,99.601,VALID,-0.0169808,VALID,19.5379,VALID,92,VALID,0,
2002-11-28, 01:24:00,VALID,920.277,VALID,0,VALID,99.6022,VALID,-0.0339617,VALID,19.5546,VALID,91,VALID,0.000616776,
2002-11-28, 01:25:00,VALID,920.256,VALID,0,VALID,99.5959,VALID,-0.0679233,VALID,19.5583,VALID,68,VALID,0.0485899,
2002-11-28, 01:26:00,VALID,920.226,VALID,0,VALID,99.6035,VALID,-0.0509425,VALID,19.5546,VALID,61,VALID,0,
2002-11-28, 01:27:00,VALID,920.207,VALID,0,VALID,99.601,VALID,-0.118866,VALID,19.5484,VALID,61,VALID,0,
2002-11-28, 01:28:00,VALID,920.187,VALID,0,VALID,99.6048,VALID,-0.0849042,VALID,19.5384,VALID,61,VALID,0,
2002-11-28, 01:29:00,VALID,920.168,VALID,0,VALID,99.6048,VALID,-0.0679233,VALID,19.5255,VALID,61,VALID,0,
2002-11-28, 01:30:00,VALID,920.153,VALID,0,VALID,99.5997,VALID,-0.101885,VALID,19.5454,VALID,61,VALID,0,
2002-11-28, 01:31:00,VALID,920.14,VALID,0,VALID,99.5984,VALID,-0.0679233,VALID,19.5322,VALID,61,VALID,0,
2002-11-28, 01:32:00,VALID,920.131,VALID,0.2,VALID,99.5908,VALID,-0.0509425,VALID,19.5285,VALID,61,VALID,0,
2002-11-28, 01:33:00,VALID,920.111,VALID,0,VALID,99.6035,VALID,-0.101885,VALID,19.5352,VALID,61,VALID,0,
2002-11-28, 01:34:00,VALID,920.116,VALID,0,VALID,99.6099,VALID,-0.0509425,VALID,19.5548,VALID,61,VALID,0.0251267,
2002-11-28, 01:35:00,VALID,920.109,VALID,0,VALID,99.6086,VALID,-0.0509425,VALID,19.5742,VALID,61,VALID,0.337121,
2002-11-28, 01:36:00,VALID,920.103,VALID,0,VALID,99.6048,VALID,0.0169808,VALID,19.5663,VALID,61,VALID,0.301309,
2002-11-28, 01:37:00,VALID,920.117,VALID,0,VALID,99.6086,VALID,0.0169808,VALID,19.5529,VALID,61,VALID,0.182566,
2002-11-28, 01:38:00,VALID,920.132,VALID,0.2,VALID,99.6048,VALID,0.0169808,VALID,19.5432,VALID,61,VALID,0.11616,
2002-11-28, 01:39:00,VALID,920.133,VALID,0,VALID,99.6061,VALID,0.0169808,VALID,19.5571,VALID,61,VALID,0.162538,
2002-11-28, 01:40:00,VALID,920.12,VALID,0,VALID,99.5997,VALID,0.0509425,VALID,19.5238,VALID,61,VALID,0.235754,
2002-11-28, 01:41:00,VALID,920.13,VALID,0,VALID,99.5984,VALID,0.0509425,VALID,19.5049,VALID,61,VALID,0.333193,
2002-11-28, 01:42:00,VALID,920.124,VALID,0.2,VALID,99.5972,VALID,0.0339617,VALID,19.4853,VALID,61,VALID,0.460938,
2002-11-28, 01:43:00,VALID,920.111,VALID,0,VALID,99.6035,VALID,0.0339617,VALID,19.4691,VALID,61,VALID,0.612542,
2002-11-28, 01:44:00,VALID,920.096,VALID,0.2,VALID,99.6035,VALID,0.0339617,VALID,19.4726,VALID,48,VALID,0.840872,
2002-11-28, 01:45:00,VALID,920.095,VALID,0,VALID,99.6022,VALID,0.0509425,VALID,19.4726,VALID,42,VALID,0.368421,
2002-11-28, 01:46:00,VALID,920.086,VALID,0,VALID,99.5946,VALID,0.0339617,VALID,19.4694,VALID,46,VALID,0.499619,
2002-11-28, 01:47:00,VALID,920.07,VALID,0,VALID,99.5959,VALID,0.0509425,VALID,19.4597,VALID,42,VALID,0.408778,
2002-11-28, 01:48:00,VALID,920.064,VALID,0,VALID,99.6048,VALID,0.0679233,VALID,19.4497,VALID,29,VALID,0.399704,
2002-11-28, 01:49:00,VALID,920.047,VALID,0,VALID,99.6111,VALID,0.0509425,VALID,19.4659,VALID,22,VALID,0.543561,
2002-11-28, 01:50:00,VALID,920.017,VALID,0.2,VALID,99.6099,VALID,0,VALID,19.483,VALID,37,VALID,0.790329,
2002-11-28, 01:51:00,VALID,920.001,VALID,0,VALID,99.615,VALID,-0.0509425,VALID,19.477,VALID,36,VALID,0.880757,
2002-11-28, 01:52:00,VALID,919.979,VALID,0,VALID,99.6099,VALID,-0.0679233,VALID,19.4773,VALID,23,VALID,0.984375,
2002-11-28, 01:53:00,VALID,919.961,VALID,0,VALID,99.6073,VALID,-0.0509425,VALID,19.4671,VALID,22,VALID,1.1553,
2002-11-28, 01:54:00,VALID,919.963,VALID,0,VALID,99.6086,VALID,-0.0509425,VALID,19.4837,VALID,16,VALID,1.0602,
2002-11-28, 01:55:00,VALID,919.954,VALID,0,VALID,99.6073,VALID,-0.0339617,VALID,19.49,VALID,9,VALID,1.1894,
2002-11-28, 01:56:00,VALID,919.932,VALID,0,VALID,99.6175,VALID,-0.0679233,VALID,19.477,VALID,5,VALID,1.06592,
2002-11-28, 01:57:00,VALID,919.915,VALID,0,VALID,99.6175,VALID,-0.0339617,VALID,19.4736,VALID,5,VALID,0.750633,
2002-11-28, 01:58:00,VALID,919.906,VALID,0,VALID,99.6137,VALID,-0.0339617,VALID,19.4507,VALID,7,VALID,0.93051,
2002-11-28, 01:59:00,VALID,919.894,VALID,0,VALID,99.6099,VALID,-0.0339617,VALID,19.4373,VALID,4,VALID,1.4854,
2002-11-28, 02:00:00,VALID,919.865,VALID,0.2,VALID,99.62,VALID,-0.0339617,VALID,19.4512,VALID,15,VALID,1.46132,
2002-11-28, 02:01:00,VALID,919.842,VALID,0,VALID,99.6175,VALID,-0.0679233,VALID,19.4442,VALID,24,VALID,1.2307,
2002-11-28, 02:02:00,VALID,919.826,VALID,0,VALID,99.615,VALID,-0.0509425,VALID,19.4674,VALID,8,VALID,1.1079,
2002-11-28, 02:03:00,VALID,919.815,VALID,0,VALID,99.6188,VALID,-0.0339617,VALID,19.4606,VALID,3,VALID,0.777462,
2002-11-28, 02:04:00,VALID,919.8,VALID,0,VALID,99.6124,VALID,-0.0849042,VALID,19.4447,VALID,12,VALID,1.15625,
2002-11-28, 02:05:00,VALID,919.783,VALID,0,VALID,99.6315,VALID,-0.0849042,VALID,19.448,VALID,14,VALID,0.980674,
2002-11-28, 02:06:00,VALID,919.778,VALID,0.2,VALID,99.634,VALID,-0.135847,VALID,19.4529,VALID,358,VALID,0.819079,
2002-11-28, 02:07:00,VALID,919.769,VALID,0,VALID,99.6442,VALID,-0.135847,VALID,19.4658,VALID,4,VALID,0.965511,
2002-11-28, 02:08:00,VALID,919.759,VALID,0,VALID,99.6391,VALID,-0.135847,VALID,19.4552,VALID,23,VALID,0.856158,
2002-11-28, 02:09:00,VALID,919.753,VALID,0,VALID,99.6353,VALID,-0.118866,VALID,19.4653,VALID,30,VALID,0.835515,
2002-11-28, 02:10:00,VALID,919.731,VALID,0.2,VALID,99.6378,VALID,-0.101885,VALID,19.4653,VALID,22,VALID,0.97168,
2002-11-28, 02:11:00,VALID,919.723,VALID,0,VALID,99.6417,VALID,-0.118866,VALID,19.4783,VALID,19,VALID,1.13492,
2002-11-28, 02:12:00,VALID,919.711,VALID,0,VALID,99.6455,VALID,-0.152827,VALID,19.485,VALID,9,VALID,1.066,
2002-11-28, 02:13:00,VALID,919.691,VALID,0,VALID,99.6378,VALID,-0.118866,VALID,19.4748,VALID,18,VALID,1.27611,
2002-11-28, 02:14:00,VALID,919.664,VALID,0,VALID,99.6378,VALID,-0.118866,VALID,19.4813,VALID,12,VALID,1.49085,
2002-11-28, 02:15:00,VALID,919.635,VALID,0,VALID,99.6289,VALID,-0.135847,VALID,19.4594,VALID,7,VALID,1.56687,
2002-11-28, 02:16:00,VALID,919.643,VALID,0,VALID,99.6442,VALID,-0.135847,VALID,19.4358,VALID,350,VALID,1.43539,
2002-11-28, 02:17:00,VALID,919.656,VALID,0.2,VALID,99.6493,VALID,-0.135847,VALID,19.4201,VALID,340,VALID,1.08333,
2002-11-28, 02:18:00,VALID,919.677,VALID,0,VALID,99.6518,VALID,-0.118866,VALID,19.4139,VALID,357,VALID,1.59565,
2002-11-28, 02:19:00,VALID,919.683,VALID,0,VALID,99.6417,VALID,-0.135847,VALID,19.4107,VALID,343,VALID,1.15687,
2002-11-28, 02:20:00,VALID,919.684,VALID,0,VALID,99.6315,VALID,-0.101885,VALID,19.4169,VALID,359,VALID,1.61369,
2002-11-28, 02:21:00,VALID,919.678,VALID,0,VALID,99.6378,VALID,0.0169808,VALID,19.4013,VALID,358,VALID,1.38434,
2002-11-28, 02:22:00,VALID,919.656,VALID,0,VALID,99.6277,VALID,0.0169808,VALID,19.4142,VALID,338,VALID,1.26654,
2002-11-28, 02:23:00,VALID,919.659,VALID,0,VALID,99.6264,VALID,0,VALID,19.4144,VALID,332,VALID,0.947846,
2002-11-28, 02:24:00,VALID,919.663,VALID,0,VALID,99.634,VALID,0.0339617,VALID,19.4211,VALID,339,VALID,0.793213,
2002-11-28, 02:25:00,VALID,919.648,VALID,0,VALID,99.6315,VALID,0.0339617,VALID,19.4142,VALID,326,VALID,0.872255,
2002-11-28, 02:26:00,VALID,919.676,VALID,0.2,VALID,99.6264,VALID,0.0339617,VALID,19.4077,VALID,319,VALID,0.539268,
2002-11-28, 02:27:00,VALID,919.688,VALID,0,VALID,99.6251,VALID,0.0169808,VALID,19.4075,VALID,320,VALID,0.236431,
2002-11-28, 02:28:00,VALID,919.701,VALID,0,VALID,99.6277,VALID,0.0169808,VALID,19.4274,VALID,309,VALID,0.0908918,
2002-11-28, 02:29:00,VALID,919.707,VALID,0,VALID,99.6328,VALID,0.0509425,VALID,19.4405,VALID,299,VALID,0.0282629,
2002-11-28, 02:30:00,VALID,919.714,VALID,0,VALID,99.6302,VALID,0,VALID,19.4532,VALID,299,VALID,0.104519,
2002-11-28, 02:31:00,VALID,919.721,VALID,0,VALID,99.6366,VALID,0.0339617,VALID,19.4624,VALID,299,VALID,0,
2002-11-28, 02:32:00,VALID,919.72,VALID,0.2,VALID,99.6417,VALID,0.0339617,VALID,19.4984,VALID,299,VALID,0.0147804,
2002-11-28, 02:33:00,VALID,919.716,VALID,0,VALID,99.6442,VALID,0,VALID,19.5143,VALID,348,VALID,0.335526,
2002-11-28, 02:34:00,VALID,919.703,VALID,0,VALID,99.6366,VALID,0,VALID,19.524,VALID,21,VALID,0.7831,
2002-11-28, 02:35:00,VALID,919.697,VALID,0,VALID,99.6378,VALID,0.0169808,VALID,19.5598,VALID,20,VALID,0.970656,
2002-11-28, 02:36:00,VALID,919.667,VALID,0,VALID,99.6417,VALID,0.0339617,VALID,19.5732,VALID,21,VALID,0.83318,
2002-11-28, 02:37:00,VALID,919.655,VALID,0,VALID,99.6328,VALID,0,VALID,19.5889,VALID,21,VALID,0.730574,
2002-11-28, 02:38:00,VALID,919.648,VALID,0,VALID,99.634,VALID,0.0509425,VALID,19.5886,VALID,20,VALID,0.516602,
2002-11-28, 02:39:00,VALID,919.645,VALID,0,VALID,99.6442,VALID,0.0679233,VALID,19.6013,VALID,360,VALID,0.207137,
2002-11-28, 02:40:00,VALID,919.636,VALID,0,VALID,99.6391,VALID,0.0339617,VALID,19.5921,VALID,360,VALID,0.165913,
2002-11-28, 02:41:00,VALID,919.642,VALID,0.2,VALID,99.634,VALID,0.0509425,VALID,19.5727,VALID,3,VALID,0.502056,
2002-11-28, 02:42:00,VALID,919.627,VALID,0,VALID,99.634,VALID,0.0339617,VALID,19.5084,VALID,22,VALID,0.828697,
2002-11-28, 02:43:00,VALID,919.615,VALID,0,VALID,99.6289,VALID,0,VALID,19.4853,VALID,16,VALID,0.192555,
2002-11-28, 02:44:00,VALID,919.611,VALID,0,VALID,99.6391,VALID,0.0509425,VALID,19.4987,VALID,16,VALID,0.310177,
2002-11-28, 02:45:00,VALID,919.598,VALID,0.2,VALID,99.634,VALID,0.0169808,VALID,19.5173,VALID,18,VALID,0.893229,
2002-11-28, 02:46:00,VALID,919.576,VALID,0,VALID,99.6353,VALID,0,VALID,19.5342,VALID,9,VALID,0.919341,
2002-11-28, 02:47:00,VALID,919.538,VALID,0,VALID,99.6328,VALID,0.0169808,VALID,19.5248,VALID,16,VALID,0.97903,
2002-11-28, 02:48:00,VALID,919.495,VALID,0,VALID,99.6353,VALID,0.0169808,VALID,19.5114,VALID,18,VALID,0.996711,
2002-11-28, 02:49:00,VALID,919.465,VALID,0,VALID,99.6328,VALID,0.0169808,VALID,19.482,VALID,354,VALID,0.771341,
2002-11-28, 02:50:00,VALID,919.451,VALID,0,VALID,99.6277,VALID,0.0169808,VALID,19.4465,VALID,323,VALID,0.624081,
2002-11-28, 02:51:00,VALID,919.439,VALID,0,VALID,99.6404,VALID,0.0339617,VALID,19.4117,VALID,4,VALID,0.63978,
2002-11-28, 02:52:00,VALID,919.418,VALID,0.2,VALID,99.6417,VALID,0,VALID,19.4142,VALID,14,VALID,1.22168,
2002-11-28, 02:53:00,VALID,919.408,VALID,0,VALID,99.6417,VALID,0,VALID,19.4207,VALID,10,VALID,0.802426,
2002-11-28, 02:54:00,VALID,919.396,VALID,0,VALID,99.634,VALID,0.0339617,VALID,19.4209,VALID,3,VALID,0.862048,
2002-11-28, 02:55:00,VALID,919.394,VALID,0,VALID,99.6468,VALID,0,VALID,19.4179,VALID,14,VALID,0.86616,
2002-11-28, 02:56:00,VALID,919.38,VALID,0,VALID,99.6493,VALID,0,VALID,19.4308,VALID,25,VALID,1.49047,
2002-11-28, 02:57:00,VALID,919.352,VALID,0,VALID,99.6468,VALID,0.0169808,VALID,19.4403,VALID,21,VALID,1.24173,
2002-11-28, 02:58:00,VALID,919.383,VALID,0,VALID,99.6556,VALID,0.0509425,VALID,19.4562,VALID,15,VALID,0.874367,
2002-11-28, 02:59:00,VALID,919.381,VALID,0,VALID,99.6506,VALID,0.0169808,VALID,19.44,VALID,4,VALID,0.727036,
2002-11-28, 03:00:00,VALID,919.376,VALID,0,VALID,99.6468,VALID,0,VALID,19.4465,VALID,19,VALID,0.783361,
2002-11-28, 03:01:00,VALID,919.363,VALID,0,VALID,99.6455,VALID,0,VALID,19.4497,VALID,337,VALID,0.374178,
2002-11-28, 03:02:00,VALID,919.357,VALID,0,VALID,99.6468,VALID,0.0169808,VALID,19.44,VALID,16,VALID,0.470189,
2002-11-28, 03:03:00,VALID,919.344,VALID,0,VALID,99.6404,VALID,0.0169808,VALID,19.4239,VALID,32,VALID,0.485137,
2002-11-28, 03:04:00,VALID,919.325,VALID,0.2,VALID,99.6442,VALID,0.0169808,VALID,19.4368,VALID,31,VALID,0.196921,
2002-11-28, 03:05:00,VALID,919.323,VALID,0,VALID,99.6544,VALID,0.0169808,VALID,19.45,VALID,30,VALID,0.189611,
2002-11-28, 03:06:00,VALID,919.326,VALID,0,VALID,99.6518,VALID,0.0169808,VALID,19.4631,VALID,27,VALID,0.257568,
2002-11-28, 03:07:00,VALID,919.316,VALID,0,VALID,99.6455,VALID,0,VALID,19.4631,VALID,25,VALID,0.188133,
2002-11-28, 03:08:00,VALID,919.312,VALID,0,VALID,99.6404,VALID,0,VALID,19.4626,VALID,324,VALID,0.599918,
2002-11-28, 03:09:00,VALID,919.295,VALID,0,VALID,99.6455,VALID,0.0169808,VALID,19.4271,VALID,8,VALID,1.22389,
2002-11-28, 03:10:00,VALID,919.289,VALID,0.2,VALID,99.6429,VALID,0.0339617,VALID,19.4278,VALID,25,VALID,1.71208,
2002-11-28, 03:11:00,VALID,919.275,VALID,0,VALID,99.6442,VALID,0.0169808,VALID,19.4177,VALID,24,VALID,1.16245,
2002-11-28, 03:12:00,VALID,919.274,VALID,0,VALID,99.6455,VALID,0.0169808,VALID,19.4303,VALID,24,VALID,0.764147,
2002-11-28, 03:13:00,VALID,919.272,VALID,0,VALID,99.6455,VALID,0,VALID,19.4403,VALID,9,VALID,0.581913,
2002-11-28, 03:14:00,VALID,919.259,VALID,0.2,VALID,99.6404,VALID,0.0339617,VALID,19.4209,VALID,13,VALID,0.68011,
2002-11-28, 03:15:00,VALID,919.25,VALID,0,VALID,99.6607,VALID,0,VALID,19.4316,VALID,9,VALID,1.27056,
2002-11-28, 03:16:00,VALID,919.244,VALID,0,VALID,99.6417,VALID,0.0169808,VALID,19.3948,VALID,7,VALID,0.897615,
2002-11-28, 03:17:00,VALID,919.25,VALID,0.2,VALID,99.648,VALID,0,VALID,19.3692,VALID,357,VALID,0.893483,
2002-11-28, 03:18:00,VALID,919.271,VALID,0,VALID,99.6493,VALID,0,VALID,19.367,VALID,353,VALID,0.726563,
2002-11-28, 03:19:00,VALID,919.311,VALID,0,VALID,99.648,VALID,-0.0169808,VALID,19.357,VALID,14,VALID,0.800887,
2002-11-28, 03:20:00,VALID,919.323,VALID,0.2,VALID,99.6493,VALID,0,VALID,19.3533,VALID,352,VALID,0.465088,
2002-11-28, 03:21:00,VALID,919.349,VALID,0,VALID,99.6417,VALID,0,VALID,19.3399,VALID,328,VALID,0.542652,
2002-11-28, 03:22:00,VALID,919.389,VALID,0,VALID,99.6455,VALID,0.0169808,VALID,19.3304,VALID,3,VALID,0.603207,
2002-11-28, 03:23:00,VALID,919.412,VALID,0,VALID,99.6506,VALID,0,VALID,19.3399,VALID,7,VALID,0.767681,
2002-11-28, 03:24:00,VALID,919.403,VALID,0.2,VALID,99.6544,VALID,0,VALID,19.3533,VALID,22,VALID,0.806784,
2002-11-28, 03:25:00,VALID,919.421,VALID,0,VALID,99.6595,VALID,0,VALID,19.3628,VALID,355,VALID,0.699449,
2002-11-28, 03:26:00,VALID,919.429,VALID,0,VALID,99.6556,VALID,0,VALID,19.3372,VALID,338,VALID,1.0152,
2002-11-28, 03:27:00,VALID,919.433,VALID,0.2,VALID,99.6556,VALID,0,VALID,19.3533,VALID,5,VALID,0.753314,
2002-11-28, 03:28:00,VALID,919.436,VALID,0,VALID,99.6493,VALID,0.0169808,VALID,19.3367,VALID,337,VALID,0.724451,
2002-11-28, 03:29:00,VALID,919.435,VALID,0,VALID,99.662,VALID,0,VALID,19.3533,VALID,2,VALID,0.513569,
2002-11-28, 03:30:00,VALID,919.438,VALID,0,VALID,99.6506,VALID,0,VALID,19.3498,VALID,2,VALID,0.172903,
2002-11-28, 03:31:00,VALID,919.433,VALID,0,VALID,99.6556,VALID,-0.0169808,VALID,19.3436,VALID,353,VALID,0.123666,
2002-11-28, 03:32:00,VALID,919.447,VALID,0.2,VALID,99.6556,VALID,0.0169808,VALID,19.3401,VALID,353,VALID,0.157858,
2002-11-28, 03:33:00,VALID,919.431,VALID,0,VALID,99.6582,VALID,0,VALID,19.3374,VALID,353,VALID,0.179476,
2002-11-28, 03:34:00,VALID,919.437,VALID,0,VALID,99.6607,VALID,0,VALID,19.3342,VALID,5,VALID,0.370361,